STARLINK-4435 (53502 NORAD) Tracking and Keplerian Element Data

This shows tracking and keplerian element data for the satellite.

Feedback or suggestion? Click here.




ElementValue
Catalog53502
NameSTARLINK-4435
Epoch Orbit1552
Epoch Day325.26747208
Epoch Year2022
RAAN84.3324
Inclination97.6558
Eccentricity0.0002978
Argument of Perigee26.3496
Mean Anonmoly333.7879
Mean Motion15.01256566
Decay Rate7.5E-06
L11 53502U 22099AP 22325.26747208 .00000750 00000+0 63018-4 0 9990
L22 53502 97.6558 84.3324 0002978 26.3496 333.7879 15.01256566 15527



Live tracking and technical data element details for STARLINK-4435 (NORAD 53502). STARLINK-4435 can be tracked NOW for your location showing map with azimuth and elevation plus other details from your city location.







IsCatalogInMostPopularTable: catalog: 53502, numindb: 5
Update: records affected: 1



GetName: 53502 STARLINK-4435

Hit Count: updated at: Thu, 08 Dec 2022 20:36:40 GMT